Regional Weather Roundup
Issued by NWS Jackson, KY

Home | Current Version | Previous Version | Graphics & Text | Print | Product List | Glossary On
Versions: 1 2 3 4 5 6 7 8 9 10 11 12 13 14 15 16 17 18 19 20 21 22 23 24 25 26 27
000
ASUS43 KJKL 270610
RWRJKL

EAST KENTUCKY HOURLY WEATHER ROUNDUP
NATIONAL WEATHER SERVICE JACKSON KY
200 AM EDT SAT AUG 27 2016

NOTE: "FAIR" INDICATES FEW OR NO CLOUDS BELOW 12,000 FEET WITH
NO SIGNIFICANT WEATHER AND/OR OBSTRUCTIONS TO VISIBILITY.

* THESE REPORTS ARE NOT UNDER NWS QUALITY CONTROL AND MAY NOT
  REPORT WEATHER SUCH AS PRECIPITATION AND FOG.

KYZ079-080-083-085-087-088-110-112-115-119-120-270700
...EASTERN KENTUCKY...

CITY           SKY/WX    TMP DP  RH WIND       PRES   REMARKS
JACKSON        CLEAR     74  70  87 CALM      30.15S
6HR MIN TEMP:  74; 6HR MAX TEMP:  83;

LONDON         CLEAR     72  68  87 CALM      30.13F
6HR MIN TEMP:  72; 6HR MAX TEMP:  83;

SOMERSET*      CLOUDY    72  70  94 CALM      30.13F
MONTICELLO*    CLOUDY   N/A N/A N/A CALM      30.14S
WILLIAMSBURG*  CLEAR     72  72 100 CALM      30.13S
MIDDLESBORO*   PTCLDY    71  71  99 CALM      30.14F
6HR MIN TEMP:  71; 6HR MAX TEMP:  82;

HARLAN APT*      N/A     70  68  94 CALM      30.17S
PIKE CO APT*     N/A     73  73 100 CALM      30.16S
BIG SANDY APT* CLEAR     73  73 100 CALM      30.15S FOG
6HR MIN TEMP:  73; 6HR MAX TEMP:  83;

MOREHEAD APT*  CLEAR     73  70  88 S6        30.15S
$$

KYZ035-036-041-042-044-050-067-078-099-270700
...CENTRAL KENTUCKY...

CITY           SKY/WX    TMP DP  RH WIND       PRES   REMARKS
MT STERLING*   CLOUDY    75  73  94 S6        30.14F
FLEMING/MASON* CLOUDY    73  72  95 CALM      30.13R
DANVILLE*      MOCLDY    70  68  94 CALM      30.13F
LEXINGTON      CLOUDY    74  69  85 CALM      30.13R
6HR MIN TEMP:  73; 6HR MAX TEMP:  86;

FRANKFORT      CLOUDY    75  70  84 CALM      30.10S
6HR MIN TEMP:  74; 6HR MAX TEMP:  87;

LOUISVILLE     CLOUDY    81  73  76 CALM      30.09S
6HR MIN TEMP:  79; 6HR MAX TEMP:  89;

LEBANON*         N/A     72  70  94 CALM      30.12S
GLASGOW*       CLOUDY    75  75 100 CALM      30.10F
BOWLING GREEN  CLOUDY    77  70  79 NW5       30.11S
6HR MIN TEMP:  77; 6HR MAX TEMP:  86;

$$

KYZ091>093-OHZ055-061-077-WVZ005-015-034-035-042-270700
...SOUTHERN OHIO/WEST VIRGINIA...

CITY           SKY/WX    TMP DP  RH WIND       PRES   REMARKS
COVINGTON      CLOUDY    75  72  90 CALM      30.11S
DAYTON         PTCLDY    72  70  93 N3        30.14S
WILMINGTON     CLOUDY    73  71  93 E3        30.13S
HUNTINGTON     CLEAR     75  73  93 CALM      30.11F FOG
CHARLESTON     PTCLDY    74  72  93 CALM      30.13F
PINEVILLE*     CLEAR     69  66  89 MISG      30.23F FOG
BECKLEY        CLEAR     70  67  90 CALM      30.23F
BLUEFIELD      CLEAR     70  66  87 CALM      30.25F
LOGAN CO APT*    N/A     73  72  94 CALM      30.16F
$$

VAZ002-007-008-TNZ017-027-036-066-071-270700
...SOUTHWEST VIRGINIA/EAST TENNESSEE...

CITY           SKY/WX    TMP DP  RH WIND       PRES   REMARKS
WISE*          CLEAR     72  63  73 CALM      30.24F
JONESVILLE*      N/A     72  70  94 CALM      30.18S
ABINGDON*      CLEAR     72  69  90 CALM      30.20F
BRISTOL        PTCLDY    72  69  90 CALM      30.16F
MORRISTOWN*    CLEAR     75  70  83 NE3       30.13F
SEVIERVILLE*   CLEAR     72  68  88 CALM      30.11S
KNOXVILLE      CLOUDY    78  70  76 W5        30.11S
OAK RIDGE      CLOUDY    76  73  91 CALM      30.13S
CROSSVILLE     CLOUDY    72  70  93 CALM      30.17F
NASHVILLE      CLOUDY    76  70  82 N5        30.09F
$$

...KEY TO REMARKS...
VSB - VISIBILITY IN MILES
WCI - WIND CHILL INDEX
HX  - HEAT INDEX

$$




USA.gov is the U.S. government's official web portal to all federal, state and local government web resources and services.